Metropolis, IL

1:55 PM CDT on June 25, 2017 (GMT -0500)
Metropolis

Weather History for KM30 - February, 2013

Change the Weather History Date:

Sunday, February 3, 2013

  Actual Average (KPAH) Record (KPAH)
Temperature  
Mean Temperature 34 °F -  
Max Temperature 42 °F 43 °F 70 °F (1992)
Min Temperature 27 °F 25 °F -8 °F (1985)
Degree Days  
Heating Degree Days 30    
Moisture  
Dew Point 25 °F    
Average Humidity 69    
Maximum Humidity 96    
Minimum Humidity 43    
Precipitation  
Precipitation 0.00 in - - ()
Sea Level Pressure  
Sea Level Pressure 30.11 in    
Wind  
Wind Speed 5 mph (WNW)    
Max Wind Speed 18 mph    
Max Gust Speed 26 mph    
Visibility 10 miles    
Events Rain    
Averages and records for this station are not official NWS values.
T = Trace of Precipitation, MM = Missing Value Source: NWS Daily Summary

Daily Weather History Graph

Daily Weather History Graph

Search for Another Location

Airport or City:

Trip Planner

Search our weather history database for the weather conditions in past years. The results will help you decide how hot, cold, wet, or windy it might be!

Date:

Astronomy

Feb. 03, 2013 Rise Set
Actual Time 6:55 AM CST 5:22 PM CST
Civil Twilight 6:28 AM CST 5:49 PM CST
Nautical Twilight 5:57 AM CST 6:20 PM CST
Astronomical Twilight 5:27 AM CST 6:51 PM CST
Moon 12:22 AM CST (2/3) 11:00 AM CST (2/3)
Length of Visible Light 11h 20m
Length of Day
10h 26m
Waning Gibbous, 48% of the Moon is Illuminated
Feb 3
Waning Gibbous
Feb 10
New
Feb 17
First Quarter
Feb 25
Full
Mar 4
Last Quarter

Hourly Weather History & Observations

Time (CST) Temp. Windchill Dew Point Humidity Pressure Visibility Wind Dir Wind Speed Gust Speed Precip Events Conditions
12:15 AM 31.5 °F - 27.1 °F 84% 30.09 in 10.0 mi Calm Calm - N/A   Mostly Cloudy
12:35 AM 32.0 °F - 28.4 °F 87% 30.08 in 10.0 mi Calm Calm - N/A   Overcast
12:55 AM 32.5 °F - 29.1 °F 87% 30.08 in 10.0 mi Calm Calm - N/A   Overcast
1:15 AM 32.4 °F - 29.5 °F 89% 30.07 in 10.0 mi Calm Calm - N/A   Overcast
1:35 AM 33.1 °F - 30.4 °F 90% 30.06 in 10.0 mi Calm Calm - N/A   Overcast
2:15 AM 33.8 °F - 30.6 °F 88% 30.04 in 10.0 mi Calm Calm - N/A Rain Light Rain
2:35 AM 34.3 °F 31.4 °F 29.8 °F 84% 30.01 in 10.0 mi South 3.5 mph - N/A   Overcast
2:55 AM 35.1 °F 31.0 °F 29.7 °F 81% 30.01 in 10.0 mi South 4.6 mph - N/A   Overcast
3:15 AM 34.2 °F 29.0 °F 29.7 °F 84% 30.03 in 10.0 mi North 5.8 mph - N/A   Overcast
3:35 AM 34.0 °F 31.0 °F 29.3 °F 83% 30.03 in 10.0 mi North 3.5 mph - N/A   Mostly Cloudy
3:55 AM 32.0 °F - 28.9 °F 88% 30.01 in 10.0 mi Calm Calm - N/A   Scattered Clouds
4:15 AM 31.1 °F - 28.6 °F 90% 30.01 in 10.0 mi Calm Calm - N/A   Clear
4:35 AM 30.2 °F - 28.8 °F 94% 30.01 in 10.0 mi Calm Calm - N/A   Clear
4:55 AM 30.9 °F 25.2 °F 29.8 °F 96% 30.02 in 10.0 mi West 5.8 mph - N/A   Clear
5:15 AM 33.3 °F 27.1 °F 30.4 °F 89% 30.03 in 10.0 mi West 6.9 mph - N/A   Clear
5:35 AM 35.2 °F 28.1 °F 30.2 °F 82% 30.03 in 10.0 mi WNW 9.2 mph - N/A   Clear
5:55 AM 36.0 °F 29.6 °F 30.2 °F 80% 30.03 in 10.0 mi West 8.1 mph - N/A   Clear
6:15 AM 36.0 °F 30.3 °F 30.2 °F 80% 30.04 in 10.0 mi West 6.9 mph - N/A   Clear
6:35 AM 36.3 °F 29.5 °F 31.1 °F 81% 30.06 in 10.0 mi West 9.2 mph - N/A   Scattered Clouds
6:55 AM 36.3 °F 30.1 °F 30.6 °F 80% 30.07 in 10.0 mi WNW 8.1 mph - N/A   Clear
7:15 AM 36.7 °F 29.9 °F 30.2 °F 77% 30.07 in 10.0 mi West 9.2 mph 17.3 mph N/A   Clear
7:35 AM 37.0 °F 29.8 °F 30.2 °F 76% 30.07 in 10.0 mi West 10.4 mph - N/A   Clear
7:55 AM 37.6 °F 30.5 °F 30.2 °F 75% 30.08 in 10.0 mi West 10.4 mph - N/A   Clear
8:15 AM 38.5 °F 31.1 °F 30.4 °F 73% 30.08 in 10.0 mi WNW 11.5 mph - N/A   Scattered Clouds
8:35 AM 38.3 °F 31.4 °F 30.4 °F 73% 30.10 in 10.0 mi WNW 10.4 mph 16.1 mph N/A   Mostly Cloudy
8:55 AM 38.8 °F 31.6 °F 30.0 °F 71% 30.10 in 10.0 mi West 11.5 mph 19.6 mph N/A   Mostly Cloudy
9:15 AM 39.4 °F 31.4 °F 29.5 °F 68% 30.10 in 10.0 mi WNW 13.8 mph 19.6 mph N/A   Mostly Cloudy
9:35 AM 39.2 °F 32.0 °F 28.9 °F 67% 30.11 in 10.0 mi WNW 11.5 mph 18.4 mph N/A   Overcast
9:55 AM 39.2 °F 32.0 °F 28.4 °F 65% 30.12 in 10.0 mi NW 11.5 mph - N/A   Overcast
10:15 AM 39.2 °F 33.6 °F 29.1 °F 67% 30.13 in 10.0 mi NW 8.1 mph - N/A   Overcast
10:35 AM 40.6 °F 34.3 °F 29.3 °F 64% 30.14 in 10.0 mi NW 10.4 mph 16.1 mph N/A   Overcast
10:55 AM 39.6 °F 32.1 °F 26.4 °F 59% 30.15 in 10.0 mi WNW 12.7 mph - N/A   Overcast
11:15 AM 39.4 °F 31.4 °F 26.6 °F 60% 30.15 in 10.0 mi WNW 13.8 mph 18.4 mph N/A   Overcast
11:35 AM 40.3 °F 32.2 °F 25.0 °F 54% 30.16 in 10.0 mi WNW 15.0 mph 23.0 mph N/A   Mostly Cloudy
11:55 AM 41.2 °F 32.7 °F 23.9 °F 50% 30.15 in 10.0 mi West 17.3 mph 26.5 mph N/A   Mostly Cloudy
12:15 PM 39.9 °F 32.5 °F 23.5 °F 52% 30.15 in 10.0 mi NW 12.7 mph 20.7 mph N/A   Mostly Cloudy
12:55 PM 41.5 °F 35.0 °F 22.8 °F 47% 30.15 in 10.0 mi NW 11.5 mph 19.6 mph N/A   Mostly Cloudy
1:15 PM 41.4 °F 35.7 °F 21.7 °F 46% 30.15 in 10.0 mi WNW 9.2 mph 18.4 mph N/A   Scattered Clouds
1:35 PM 42.3 °F 35.5 °F 21.6 °F 44% 30.15 in 10.0 mi NW 12.7 mph 18.4 mph N/A   Scattered Clouds
1:55 PM 42.4 °F 34.1 °F 21.4 °F 43% 30.15 in 10.0 mi WNW 18.4 mph 24.2 mph N/A   Scattered Clouds
2:15 PM 41.7 °F 34.1 °F 22.3 °F 46% 30.16 in 10.0 mi NW 15.0 mph 21.9 mph N/A   Scattered Clouds
2:35 PM 41.7 °F 35.2 °F 22.5 °F 46% 30.16 in 10.0 mi NNW 11.5 mph 23.0 mph N/A   Clear
2:55 PM 40.8 °F 34.5 °F 21.0 °F 45% 30.16 in 10.0 mi NNW 10.4 mph - N/A   Clear
3:15 PM 40.5 °F 34.1 °F 21.2 °F 46% 30.16 in 10.0 mi NNW 10.4 mph - N/A   Clear
3:35 PM 40.1 °F 32.7 °F 20.7 °F 46% 30.16 in 10.0 mi NNW 12.7 mph - N/A   Clear
3:55 PM 39.6 °F 34.0 °F 19.9 °F 45% 30.17 in 10.0 mi NW 8.1 mph - N/A   Clear
4:15 PM 39.2 °F 35.0 °F 20.1 °F 46% 30.16 in 10.0 mi North 5.8 mph - N/A   Clear
4:35 PM 38.7 °F 33.6 °F 20.5 °F 48% 30.17 in 10.0 mi NW 6.9 mph - N/A   Clear
4:55 PM 37.9 °F 33.5 °F 20.3 °F 49% 30.17 in 10.0 mi NNW 5.8 mph - N/A   Clear
5:15 PM 36.7 °F - 20.5 °F 52% 30.17 in 10.0 mi Calm Calm - N/A   Clear
5:35 PM 36.1 °F - 21.0 °F 54% 30.17 in 10.0 mi Calm Calm - N/A   Clear
5:55 PM 32.4 °F - 21.7 °F 65% 30.16 in 10.0 mi Calm Calm - N/A   Clear
6:15 PM 33.1 °F - 21.4 °F 62% 30.16 in 10.0 mi Calm Calm - N/A   Clear
6:35 PM 32.0 °F - 22.6 °F 68% 30.17 in 10.0 mi Calm Calm - N/A   Clear
6:55 PM 32.2 °F - 21.2 °F 64% 30.17 in 10.0 mi Calm Calm - N/A   Clear
7:15 PM 31.8 °F - 21.9 °F 67% 30.16 in 10.0 mi Calm Calm - N/A   Clear
7:35 PM 29.8 °F - 23.0 °F 76% 30.16 in 10.0 mi Calm Calm - N/A   Clear
7:55 PM 29.8 °F - 22.8 °F 75% 30.17 in 10.0 mi Calm Calm - N/A   Clear
8:15 PM 28.4 °F - 23.0 °F 80% 30.16 in 10.0 mi Calm Calm - N/A   Clear
8:35 PM 27.7 °F - 22.1 °F 80% 30.16 in 10.0 mi Calm Calm - N/A   Clear
8:55 PM 27.5 °F - 22.6 °F 82% 30.16 in 10.0 mi Calm Calm - N/A   Clear
9:15 PM 27.5 °F 23.6 °F 22.1 °F 80% 30.15 in 10.0 mi ESE 3.5 mph - N/A   Clear
9:35 PM 27.3 °F 23.4 °F 21.2 °F 78% 30.14 in 10.0 mi ESE 3.5 mph - N/A   Clear
9:55 PM 28.8 °F 23.7 °F 21.4 °F 74% 30.13 in 10.0 mi ESE 4.6 mph - N/A   Clear
10:15 PM 29.3 °F 25.6 °F 21.2 °F 72% 30.12 in 10.0 mi East 3.5 mph - N/A   Clear
10:35 PM 29.8 °F 26.3 °F 21.6 °F 71% 30.12 in 10.0 mi ESE 3.5 mph - N/A   Clear
10:55 PM 29.5 °F - 21.7 °F 73% 30.12 in 10.0 mi Calm Calm - N/A   Clear
11:15 PM 29.3 °F - 21.7 °F 73% 30.12 in 10.0 mi Calm Calm - N/A   Clear
11:35 PM 29.8 °F 24.9 °F 22.3 °F 73% 30.11 in 10.0 mi ESE 4.6 mph - N/A   Clear
11:55 PM 28.8 °F 23.7 °F 22.1 °F 76% 30.09 in 10.0 mi ESE 4.6 mph - N/A   Clear